sat.trackr.live / text

‹ back to catalog

STARLINK-1047

NORAD 44752 · 2019-074AR

PAYLOAD ACTIVE UNKNOWN

§ Identity

Operator
Country
US
Launch date
2019-11-11
Launch site
AFETR
Launch vehicle
Mass (kg)
RCS (m²)

Purposes: comms

External: N2YO · Heavens-Above · Gunter

§ Orbital elements

Epoch: 2026-05-25T00:19:58.444032Z

Period
93.86 min
Inclination
53.0680°
Eccentricity
0.0003669
Mean motion
15.34125613 rev/d
Perigee alt
461.0 km
Apogee alt
466.0 km
Semi-major
6,841.7 km
B*
4.7234e-4
RAAN
148.9926°
Arg perigee
85.9110°
Mean anomaly
274.2311°
Rev number
36,105

§ Raw data

STARLINK-10471 44752U 19074AR  26145.01387088  .00015480  00000+0  47234-3 0  99962 44752  53.0680 148.9926 0003669  85.9110 274.2311 15.34125613361059

JSON: /api/v1/satellites/44752 · /tle

For live sub-satellite position, see the globe view (requires WebGL).

§ Visibility from observer

Set your observer location to see the next 7 days of passes ≥ 10°. The values pass through the URL so the page stays shareable.

No JS? Fill the form by hand. The geolocation button needs JavaScript.